View from above orbital plane
|
View from above satellite
|
Ground track
|
The orbit data is extracted from the following two-line orbital elements,
1 00051U 60009C 21024.94856478 -.00000084 00000-0 16160-4 0 9992
2 00051 47.2147 22.1700 0104259 101.8630 259.3872 12.18270495691095
Epoch (UTC): | 24 January 2021 22:45:55 |
Eccentricity: | 0.0104259 |
inclination: | 47.2147° |
perigee height: | 1517 km |
apogee height: | 1683 km |
right ascension of ascending node: | 22.1700° |
argument of perigee: | 101.8630° |
revolutions per day: | 12.18270495 |
mean anomaly at epoch: | 259.3872° |
orbit number at epoch: | 69109 |
The dashed part of the orbit path shows where the satellite is in the earth's shadow,
|
|